Theta_e
342 343 346 348 348 348 348 348 348 347 349 347 347 347 347 348 348 348 348 347 347 348 348 348 347 347 347 342 341 341 341 340 341 341 341 341 341 341 341 341 341 342 348 347 348 348 348 349 348 348 348 347 347 347 346 344 345 345 344 344 343 344 342 342 341 340 340 340 341 342 341 342 341 342 342 342 342 340 341 341 341 340 341 342 346
341 345 346 347 348 348 348 348 348 347 347 347 347 347 347 347 347 348 347 347 347 347 347 347 347 347 346 344 344 341 340 340 340 340 340 340 340 340 340 340 340 343 346 347 347 347 347 348 348 347 347 346 345 343 344 343 343 343 341 341 342 342 343 342 342 341 340 340 340 340 340 340 340 339 340 340 341 341 339 339 340 338 339 344 345
343 344 346 347 348 348 348 348 349 348 348 348 348 347 347 347 347 347 347 346 346 346 346 347 346 346 346 344 343 342 340 340 339 339 339 339 340 339 339 339 340 340 344 346 347 346 347 347 346 346 345 345 344 343 342 342 342 341 341 342 342 342 343 342 342 341 339 338 338 338 339 339 338 338 339 339 339 340 338 338 339 339 337 342 341
342 343 346 346 347 348 348 348 348 348 349 348 347 348 348 348 347 347 346 346 346 346 346 346 346 346 345 345 344 342 340 339 339 339 338 338 339 339 340 340 342 342 342 345 346 346 346 345 345 344 342 341 340 340 340 341 341 340 341 341 341 341 342 340 340 339 339 338 337 336 334 331 334 338 339 339 339 338 338 338 338 339 339 340 340
342 344 345 346 346 347 348 348 348 349 349 349 348 348 348 347 348 347 346 346 345 346 346 346 346 345 344 343 344 343 341 340 339 338 339 337 338 338 338 339 341 342 342 344 344 344 344 344 343 341 341 340 338 338 340 340 340 340 341 341 341 340 340 340 343 339 338 336 335 334 330 331 332 337 339 339 338 337 337 337 338 338 338 337 338
343 344 345 345 346 346 347 348 349 348 348 349 348 348 348 348 348 347 346 345 345 346 346 346 346 345 344 341 340 340 340 340 339 339 338 337 338 338 339 340 341 344 346 346 346 344 343 343 343 342 341 340 338 337 339 339 340 340 341 341 342 342 342 342 340 338 336 335 334 329 329 330 331 333 338 338 337 336 336 337 337 337 337 337 337
343 343 344 346 346 345 346 348 348 348 349 349 349 348 348 348 347 347 347 346 346 346 346 346 346 345 343 341 341 340 340 339 338 338 338 337 338 338 339 340 345 345 344 346 345 344 343 343 343 341 340 339 337 337 338 339 339 340 340 340 341 341 339 339 338 336 334 330 327 328 328 329 330 332 337 337 338 337 336 337 338 337 337 338 337
342 343 343 345 345 344 346 348 348 348 348 349 348 348 348 347 347 347 346 346 345 345 345 345 345 344 342 342 341 340 339 339 338 337 337 337 337 339 341 342 344 344 343 343 343 342 342 341 341 341 339 336 336 336 338 339 339 339 339 340 341 340 339 337 336 335 334 328 327 327 328 329 329 330 336 337 337 337 335 336 337 337 337 337 335
342 342 343 345 344 344 347 347 348 348 348 348 348 348 348 347 347 347 347 346 346 345 345 346 345 344 342 340 339 339 339 339 338 337 338 337 338 339 339 341 342 342 341 340 339 343 343 342 341 340 338 338 338 337 337 338 339 339 340 341 341 340 338 336 334 332 330 328 328 327 328 328 329 329 335 340 340 339 336 335 336 336 336 336 335
342 342 344 345 344 342 346 347 348 348 348 348 348 347 347 347 347 347 347 346 345 345 344 345 344 344 342 340 340 340 339 338 337 337 336 337 338 339 340 340 340 340 341 341 343 343 343 341 340 338 338 338 337 337 337 338 339 340 340 342 340 338 337 336 334 331 327 328 328 328 332 335 330 331 337 340 340 341 339 336 337 337 338 338 338
342 342 345 345 343 342 347 348 348 348 348 348 347 347 347 347 347 347 347 346 345 345 345 345 344 343 342 341 339 339 339 338 337 336 336 336 337 339 341 342 343 343 343 342 343 343 342 340 338 336 337 337 337 337 338 338 338 339 341 341 341 340 339 336 332 328 330 331 332 332 335 337 333 333 339 340 341 340 337 337 337 338 337 338 338
341 343 345 343 344 342 347 348 348 347 347 347 347 347 347 346 347 347 346 346 346 345 345 344 344 343 341 340 339 339 339 338 337 336 336 335 339 342 343 342 342 342 342 341 342 341 341 340 338 336 337 336 336 337 337 337 337 337 339 341 340 339 337 335 332 332 332 332 332 332 332 332 333 334 340 339 340 339 336 337 337 338 338 338 338
342 344 344 343 343 341 345 347 347 348 347 347 347 347 347 347 347 347 346 345 346 345 345 344 343 343 340 339 339 339 339 338 337 337 336 337 339 339 340 341 340 340 340 339 339 339 338 339 337 337 336 336 336 336 336 335 335 336 336 337 337 337 335 333 331 330 331 331 331 331 332 332 334 338 338 339 339 339 338 338 337 337 337 338 338
342 345 345 344 343 343 340 343 345 347 347 347 347 347 347 347 347 346 345 345 345 344 344 344 343 342 339 337 337 338 339 338 337 337 336 336 338 337 339 338 338 338 338 337 336 336 336 336 335 336 336 336 335 335 335 334 335 335 335 335 337 336 332 331 331 330 329 329 330 331 331 331 333 337 337 339 339 338 337 337 336 336 336 335 336
342 344 345 344 343 342 340 339 343 344 346 346 347 347 347 347 346 346 345 346 345 344 343 343 343 341 339 337 337 338 338 338 338 337 337 336 336 336 336 336 337 337 336 334 333 333 333 334 333 334 335 335 334 334 334 334 334 335 334 335 333 332 330 328 328 328 329 330 329 330 331 332 336 336 337 338 338 336 334 334 334 334 334 333 333
345 345 344 344 343 342 341 339 336 338 342 344 345 346 347 347 347 346 346 346 346 344 343 343 343 342 339 337 337 337 337 337 337 336 336 335 335 334 334 334 334 334 333 332 332 332 333 333 333 334 334 334 334 333 333 333 334 333 334 333 330 328 326 325 325 325 325 325 326 326 326 329 334 335 335 337 337 337 335 334 332 333 332 332 333
344 343 344 344 343 342 342 341 336 332 334 337 340 342 344 346 346 346 346 346 345 344 343 343 343 342 339 337 337 337 337 337 336 336 335 335 335 334 333 333 333 332 332 332 333 332 332 332 331 332 333 333 333 333 332 332 332 332 332 329 328 326 324 322 323 323 324 325 326 325 325 325 331 332 333 333 333 334 334 334 334 334 333 333 333
344 344 343 344 343 342 343 342 338 340 340 334 331 338 341 345 345 344 345 345 345 344 344 343 342 342 339 338 337 337 337 336 336 335 334 334 334 334 333 333 332 332 332 332 332 332 331 331 331 332 332 331 331 331 331 330 330 330 331 328 327 325 324 322 321 324 326 327 324 324 326 331 332 331 332 333 336 336 335 334 334 333 331 331 330
342 342 342 342 342 342 343 342 341 342 342 341 341 335 334 339 341 342 343 343 344 343 342 341 340 339 338 335 333 331 331 333 334 335 335 334 333 331 332 330 330 331 331 332 332 331 330 329 331 331 330 330 329 329 329 328 328 329 329 325 323 322 321 323 324 325 325 325 325 327 329 333 334 335 335 335 334 334 333 333 331 330 328 328 328
340 341 340 340 341 341 342 342 342 342 342 342 342 340 331 331 337 338 339 340 340 341 339 337 334 333 331 329 326 326 324 325 325 328 330 333 331 328 330 329 329 330 331 331 331 331 330 328 330 330 328 327 327 326 326 326 326 328 326 324 321 320 322 322 323 323 324 324 325 326 330 332 333 334 334 334 334 334 334 331 329 328 327 327 328
338 339 338 339 341 340 341 341 341 342 342 341 342 342 336 329 331 331 332 336 337 337 335 328 325 324 325 323 324 326 326 325 325 324 322 325 323 324 328 329 328 329 330 330 330 330 329 329 328 327 325 324 322 322 322 324 325 325 323 321 319 319 319 319 320 322 323 323 324 327 331 331 332 334 334 335 334 334 333 332 329 327 329 328 328
333 335 337 339 339 337 338 341 340 340 341 342 342 341 338 335 340 336 335 333 330 328 331 332 330 328 322 325 326 325 325 325 324 325 323 324 323 323 326 329 328 328 329 330 330 329 328 328 327 326 324 323 320 314 314 317 319 320 319 318 318 318 317 317 316 316 318 322 324 328 331 331 332 333 334 333 333 332 331 330 331 331 330 329 328
331 333 335 336 337 338 337 340 340 340 340 340 341 339 339 338 339 338 338 332 333 333 337 334 334 330 328 329 325 326 327 325 324 323 322 319 321 322 326 327 327 327 327 328 328 328 327 326 325 324 324 322 316 313 313 311 312 314 314 316 316 316 315 315 314 314 316 318 324 328 330 330 331 332 332 331 330 328 327 327 326 327 328 328 327
329 331 332 335 335 336 338 339 338 340 339 339 340 341 339 339 339 339 336 338 336 337 338 337 336 331 330 331 327 328 327 325 322 322 321 320 320 320 322 323 324 324 324 324 326 325 324 323 323 324 319 315 312 311 310 309 309 310 311 313 314 314 313 312 311 312 313 315 318 327 329 329 329 329 329 328 327 326 326 325 325 326 326 326 326
327 330 330 333 335 336 337 338 338 340 339 339 339 339 340 339 339 339 338 338 336 338 339 338 337 334 333 333 334 332 327 324 321 319 318 319 320 319 319 318 317 316 317 315 315 316 315 315 315 313 312 311 310 309 308 306 306 307 307 309 311 312 312 311 311 310 310 311 313 322 325 327 327 327 328 327 327 325 325 324 325 324 323 324 323
328 328 329 331 333 335 336 337 338 338 339 338 338 337 339 338 338 338 336 338 337 337 336 336 337 337 336 334 334 330 327 325 322 320 318 318 318 317 317 315 314 314 313 311 311 311 311 313 312 310 308 307 306 306 305 305 304 304 304 305 306 308 309 309 309 309 308 308 310 318 324 326 326 327 327 328 327 326 325 326 323 320 318 318 321
327 328 330 330 333 334 335 335 336 338 338 339 337 337 337 338 338 338 337 336 337 335 336 336 336 337 336 335 333 331 329 325 323 322 319 317 317 317 316 315 314 312 310 310 311 313 313 311 310 309 307 305 304 304 303 303 302 302 302 303 303 305 307 307 308 307 307 306 308 314 320 325 324 325 325 326 327 327 326 322 321 318 321 320 319
326 328 329 330 330 332 335 335 334 334 335 337 336 336 335 336 338 334 338 335 335 334 335 335 336 336 336 334 331 332 329 326 325 324 320 318 317 318 317 316 314 312 312 313 315 313 311 310 308 306 305 304 303 301 301 301 300 300 301 301 301 302 304 306 306 306 306 305 305 310 316 320 323 322 323 324 324 324 323 320 321 324 320 319 318
326 327 327 329 329 330 333 333 333 333 334 335 334 333 334 336 336 337 337 334 336 336 336 336 336 336 336 334 332 331 330 327 326 326 323 320 319 319 317 317 316 314 315 315 316 312 311 309 307 305 303 302 300 299 299 298 297 298 298 298 299 299 301 303 305 305 304 304 303 306 312 316 319 320 321 322 322 322 321 321 322 321 320 318 317
326 326 326 326 328 330 330 330 331 332 332 332 331 330 333 335 336 335 336 335 336 337 336 335 335 335 335 334 333 332 330 328 327 327 325 323 323 321 319 318 317 317 317 316 314 312 311 309 308 305 303 301 299 299 297 297 296 296 296 296 296 296 297 299 302 303 303 303 302 302 307 311 315 317 317 318 320 320 320 321 321 320 319 318 317
325 326 326 327 327 328 328 329 330 329 329 331 330 330 331 335 335 337 337 335 335 336 337 336 334 334 334 334 333 332 331 330 329 328 327 325 324 321 319 319 318 318 318 316 314 313 312 311 308 305 302 300 298 297 296 296 295 295 295 295 295 295 295 296 297 300 301 301 301 301 302 306 310 312 316 315 316 317 317 319 320 319 320 318 317
323 324 326 327 326 327 328 329 331 330 328 328 328 328 327 332 333 335 336 335 335 333 336 336 332 333 334 335 333 333 331 330 330 329 329 327 324 321 320 319 318 317 317 315 313 312 312 311 309 305 301 299 298 296 296 295 294 294 294 294 294 293 293 294 294 295 297 298 298 298 299 300 304 307 310 315 315 315 315 315 315 316 316 317 317
324 325 325 326 326 326 327 328 330 329 328 328 327 327 326 328 332 332 332 334 333 335 335 335 335 334 334 335 334 333 331 330 330 330 328 327 323 322 321 319 318 318 316 314 313 313 312 309 306 303 300 298 296 295 296 294 293 293 293 293 293 293 293 293 293 293 293 294 295 295 295 297 297 300 304 308 313 313 313 313 313 314 314 314 314
323 323 325 326 328 328 327 327 327 328 326 326 325 325 326 325 326 332 330 331 332 333 334 335 335 334 333 334 334 332 330 330 330 330 329 327 325 323 321 319 319 317 315 314 313 313 310 305 302 300 299 296 295 294 293 292 292 292 292 292 292 292 292 292 291 291 291 291 291 291 292 293 293 294 295 301 306 310 311 312 312 312 313 313 313
321 322 324 325 325 326 326 326 325 324 323 324 323 322 323 325 324 326 330 330 330 333 333 335 335 335 333 332 334 333 331 330 331 331 329 328 326 323 322 320 318 316 314 313 313 310 307 304 302 299 297 295 294 294 292 291 291 291 291 291 291 291 291 291 291 291 291 290 290 290 290 289 290 291 292 293 298 304 309 310 310 311 311 312 312
321 321 322 324 324 324 323 323 322 323 321 321 321 321 322 323 324 322 328 329 328 330 331 332 333 334 334 332 333 334 332 332 331 330 329 328 327 324 324 320 318 315 314 314 312 308 305 304 302 299 296 295 294 292 292 291 291 291 290 290 290 291 290 290 290 290 290 289 289 289 289 289 289 290 292 290 292 299 304 306 309 309 309 310 311
320 320 321 322 322 321 320 320 319 320 319 319 319 318 320 320 323 324 322 327 327 327 328 330 330 330 330 333 333 333 331 330 329 329 329 328 326 325 323 320 317 315 314 313 311 308 305 304 301 300 297 295 294 292 291 292 291 291 290 290 290 290 289 289 290 290 291 289 288 288 289 289 291 293 287 287 290 292 298 301 303 305 306 308 310
318 319 319 321 321 319 318 318 317 318 317 317 318 317 317 317 316 317 319 325 324 324 324 324 328 329 328 329 331 331 330 329 329 329 327 326 326 325 323 320 317 315 314 312 309 307 305 304 301 299 297 295 293 292 291 291 292 291 289 289 289 288 288 289 290 291 288 288 288 287 288 288 288 288 288 288 287 288 290 294 297 300 303 306 307
317 317 318 319 319 317 316 316 316 316 316 316 316 316 315 314 315 315 317 319 323 321 321 320 321 325 327 328 329 329 328 330 328 327 327 323 322 322 321 319 317 315 313 311 308 306 304 302 300 297 297 296 294 293 292 292 292 290 289 289 289 288 289 289 289 287 287 287 289 290 289 288 288 288 288 288 287 287 287 287 288 290 295 303 305
315 316 315 316 317 316 314 314 314 315 315 314 315 314 315 313 313 312 313 313 315 318 320 320 322 323 322 325 327 327 328 328 328 327 325 323 320 320 319 318 316 315 312 309 307 305 303 302 299 297 296 296 294 294 293 291 290 289 288 287 288 288 288 288 288 288 288 287 287 287 287 287 287 286 287 287 288 287 287 287 288 287 289 295 299
312 313 314 315 315 315 313 313 314 314 314 313 314 313 313 312 311 312 311 312 314 313 315 318 321 322 321 323 324 324 326 326 326 325 321 318 319 318 318 316 316 314 311 309 307 305 304 301 299 298 295 293 292 293 292 291 288 286 286 285 286 287 289 287 287 287 287 286 286 285 286 286 285 286 286 287 286 287 286 286 286 286 287 287 289
311 312 313 314 314 314 313 313 313 313 314 314 314 313 312 313 312 311 309 310 312 312 313 316 320 319 319 319 320 321 321 323 322 322 319 318 317 316 316 315 314 313 312 310 307 304 301 299 298 296 298 294 291 292 291 290 288 285 283 283 283 284 286 285 286 286 286 287 287 287 286 286 285 285 286 285 285 285 285 285 285 285 285 286 287
309 310 311 312 313 313 313 313 313 313 313 313 313 312 310 311 311 309 312 309 311 313 314 316 317 316 316 315 317 318 319 319 319 317 317 317 316 315 315 315 314 313 310 308 305 302 299 298 296 295 293 293 292 293 291 292 288 286 285 282 280 280 285 284 284 285 286 285 286 286 286 285 286 285 285 285 284 284 285 285 284 284 284 284 285
308 308 309 311 313 313 312 313 313 312 313 312 311 311 310 310 310 310 313 312 308 307 308 309 313 312 312 312 311 314 316 317 317 316 316 315 315 314 314 314 314 312 311 307 304 301 298 297 296 296 294 291 291 291 292 294 289 287 283 282 280 280 278 279 280 284 284 284 285 285 285 285 285 285 285 284 284 284 283 284 284 284 284 284 284
307 308 309 310 313 312 312 312 312 312 312 310 311 311 310 310 307 305 305 305 305 306 306 306 308 310 309 309 309 309 312 313 314 315 315 314 314 314 313 313 313 312 311 307 303 301 299 298 298 296 294 293 290 290 291 294 290 292 288 283 280 281 279 279 280 281 282 282 284 284 285 284 284 285 284 284 284 284 284 284 284 284 284 285 285
306 308 309 310 310 311 311 311 311 311 311 310 310 311 310 308 305 304 303 303 303 305 306 307 305 305 307 307 306 306 308 310 311 312 313 313 313 313 313 312 312 312 310 308 304 301 299 298 299 298 297 296 293 291 290 292 291 292 292 289 284 281 281 279 280 276 281 281 283 283 283 284 284 284 284 284 284 283 284 284 284 285 285 285 285
305 306 308 308 309 310 310 311 311 310 310 309 310 309 308 307 307 306 306 305 305 305 309 311 308 306 305 305 305 304 305 307 308 310 310 311 312 312 312 312 312 312 310 308 304 301 300 299 298 298 298 297 294 291 290 290 290 292 295 293 290 289 284 281 278 277 276 279 281 281 282 284 284 284 284 284 285 284 284 284 284 284 284 284 284
305 306 307 308 309 309 309 309 310 309 310 310 310 309 307 307 305 306 306 306 306 305 307 308 308 306 305 304 302 302 302 303 304 306 307 308 309 309 310 311 311 311 308 308 305 303 301 300 299 299 299 297 295 293 292 293 290 290 293 292 289 286 284 284 283 280 278 276 277 281 281 283 283 284 284 285 285 284 284 284 284 284 283 284 285
306 306 307 307 308 308 309 309 309 308 309 309 309 308 307 307 306 306 305 306 307 306 305 306 307 306 306 303 301 300 300 300 301 302 303 305 305 306 307 308 309 309 306 308 306 304 302 300 299 299 300 298 296 296 295 293 292 291 292 290 289 286 284 286 284 283 278 277 277 277 278 281 282 282 284 285 285 285 285 285 285 285 285 284 284
306 307 307 307 308 308 308 308 308 308 308 308 308 307 306 306 305 305 306 307 307 307 306 304 305 305 305 302 301 298 298 297 297 298 299 302 303 304 305 306 307 307 304 306 305 303 302 301 300 300 300 299 298 299 298 296 296 294 293 291 289 286 284 285 284 283 281 280 277 277 278 279 278 280 283 284 285 285 285 285 285 284 283 283 282
305 306 306 307 307 307 307 307 307 307 307 307 307 306 306 306 306 305 306 306 307 308 305 304 302 302 303 302 301 299 297 296 295 295 297 298 301 302 304 305 306 304 303 304 303 302 301 300 300 300 301 301 300 299 299 297 296 294 293 291 289 288 285 284 284 284 281 280 278 278 278 279 279 278 282 284 285 285 285 284 284 284 283 283 283
Wind_Speed
7 7 6 7 6 5 5 8 8 11 11 11 11 9 8 9 8 9 11 12 13 13 14 15 16 16 16 15 15 15 14 14 15 14 13 12 12 13 11 12 14 15 20 18 18 18 19 20 20 21 23 23 22 21 21 22 22 22 21 20 19 18 19 22 23 24 23 25 26 25 24 23 24 24 25 24 24 23 20 21 16 13 13 18 24
8 8 6 6 8 6 7 7 10 11 12 12 12 10 10 10 8 9 11 12 12 13 14 14 16 16 16 16 15 15 14 14 14 14 13 12 11 13 13 13 13 14 17 19 19 19 20 21 22 22 22 21 21 21 19 20 21 19 19 18 18 17 16 16 17 18 20 21 23 24 24 25 24 24 23 25 25 24 21 22 21 12 11 23 25
8 8 7 6 7 7 7 7 8 10 12 11 11 11 11 10 9 11 12 12 13 13 14 14 15 16 16 16 15 15 15 14 14 14 14 13 12 13 13 12 13 13 16 18 19 21 22 22 21 21 21 20 20 19 18 18 18 17 17 16 15 15 15 15 16 16 18 19 20 19 20 25 25 24 23 24 25 25 22 24 23 19 15 26 24
9 8 7 8 8 7 9 8 8 9 10 10 11 12 11 10 10 11 12 12 13 14 14 14 14 16 16 16 15 15 15 14 14 15 15 14 14 13 11 13 15 14 14 17 19 20 21 22 21 21 21 20 18 18 18 17 17 17 16 15 14 13 13 15 18 17 17 19 17 13 10 9 15 24 23 24 25 25 21 23 25 26 24 23 25
9 8 8 7 7 7 8 9 9 9 9 9 10 11 11 10 12 12 12 12 13 14 14 14 15 16 15 15 15 15 15 14 14 14 14 14 14 13 13 13 15 15 14 16 18 19 21 21 20 21 20 19 18 18 17 17 16 15 15 14 13 12 10 10 11 19 18 19 16 12 9 8 9 22 23 25 24 21 21 23 24 25 24 26 25
8 7 7 7 6 5 7 8 9 10 11 10 10 11 11 11 12 11 12 12 13 13 14 15 15 16 15 15 15 15 14 14 14 13 14 14 13 14 14 14 14 17 19 19 21 20 19 20 20 20 20 19 18 17 17 16 15 15 15 14 14 13 11 10 13 18 17 18 15 9 9 10 9 11 23 24 24 22 22 23 24 22 24 25 25
10 8 8 8 6 5 6 8 9 10 11 11 11 11 11 11 11 12 11 12 12 13 14 14 15 15 15 14 15 15 14 14 14 14 14 14 14 14 14 13 18 17 17 20 21 20 19 19 20 20 19 19 18 17 16 16 15 15 15 15 14 14 17 18 20 17 14 10 8 8 8 9 9 8 21 21 21 24 23 23 22 23 24 23 24
6 7 8 8 7 7 9 9 8 10 11 12 12 11 11 11 11 11 11 11 12 13 13 14 15 15 14 14 15 15 14 14 14 14 13 13 14 14 14 16 17 17 17 19 20 19 19 19 19 19 19 19 18 16 15 15 15 15 14 13 12 11 16 19 19 16 14 9 7 7 8 8 9 8 20 21 21 21 22 22 22 23 23 23 17
6 7 8 9 8 10 9 8 9 9 11 11 11 11 11 11 10 11 11 11 12 13 13 15 15 15 14 15 15 15 14 14 14 14 13 12 14 14 14 15 15 16 17 17 18 18 18 20 19 19 19 19 17 16 15 14 14 14 14 14 14 12 15 17 17 14 10 8 8 7 8 7 7 9 18 21 21 21 21 17 18 23 22 18 20
6 7 9 8 7 10 8 8 9 9 11 11 10 11 11 10 10 10 11 11 11 12 13 14 15 14 14 14 14 14 14 13 13 13 13 13 15 15 14 14 14 15 15 17 17 18 20 20 18 17 18 18 17 16 14 14 15 16 16 16 17 18 17 14 13 11 9 9 9 8 9 10 6 8 17 21 23 24 21 19 17 18 18 23 25
6 6 8 9 9 10 10 11 9 8 10 10 10 10 10 10 9 10 11 11 11 12 13 13 13 13 14 14 14 14 13 13 13 12 12 13 15 15 16 16 17 16 17 16 19 20 20 19 18 17 17 17 15 14 15 15 16 16 16 16 16 16 16 15 12 8 10 11 11 10 12 14 9 9 20 23 24 23 21 20 21 21 24 25 25
6 7 8 8 9 10 10 9 9 11 10 9 10 10 10 9 9 10 10 11 11 12 13 13 13 13 13 14 14 14 14 13 12 12 12 12 16 17 16 16 16 17 15 17 19 20 19 18 17 17 17 16 15 15 15 16 16 16 16 14 16 17 17 16 11 10 10 11 11 11 10 9 9 15 24 23 23 23 24 24 23 24 25 25 26
6 9 8 8 7 9 9 9 8 10 9 10 10 10 9 9 10 10 10 10 11 11 12 12 12 13 13 13 14 13 13 13 13 12 11 14 15 15 15 15 15 15 17 18 18 18 18 17 17 17 16 15 15 15 15 16 15 14 13 12 18 18 17 16 10 11 10 10 9 9 8 8 11 21 22 23 23 23 24 24 25 24 25 26 26
6 9 8 7 6 8 9 9 8 8 9 7 10 9 9 9 9 9 10 11 11 11 12 12 12 12 13 13 14 13 13 13 13 12 11 12 14 14 15 14 14 15 16 17 17 16 16 16 16 16 15 14 15 15 15 15 14 13 13 11 7 16 15 12 11 10 11 10 8 8 8 7 12 21 23 24 24 24 24 24 25 25 25 26 26
7 8 8 8 7 6 9 9 8 7 7 7 7 9 9 9 9 9 10 11 12 11 12 12 12 12 12 13 13 13 13 13 13 13 12 12 13 13 13 14 14 14 14 16 15 15 15 15 16 16 15 14 14 14 14 14 14 15 15 12 12 14 12 7 7 8 8 7 7 7 6 8 18 22 24 25 24 24 23 23 24 24 24 23 25
6 6 8 8 7 6 5 7 9 8 7 6 5 6 7 8 6 8 10 10 12 12 12 12 12 12 12 12 13 13 13 13 13 13 12 12 13 13 13 13 13 14 14 15 14 15 15 16 16 16 15 15 14 15 15 15 16 16 14 13 16 15 14 9 7 8 8 7 7 7 8 10 21 21 21 24 24 23 23 23 22 23 23 24 25
7 6 6 8 8 7 6 5 7 9 7 6 5 3 5 6 7 7 8 9 11 12 12 12 13 13 12 12 12 12 12 13 13 13 12 12 14 14 14 14 14 14 14 14 15 15 16 16 16 16 15 15 15 15 14 15 16 14 12 14 15 15 14 10 7 7 7 7 6 5 7 7 16 20 21 21 20 22 23 23 25 26 25 26 26
5 5 5 6 7 7 7 6 6 5 5 5 5 5 4 7 8 7 7 8 10 11 11 11 12 12 12 10 10 10 11 12 12 13 13 13 12 11 14 14 14 14 14 14 15 16 16 16 16 15 16 16 16 15 15 15 15 13 10 14 15 14 14 12 7 8 8 7 6 5 6 9 16 19 20 21 22 24 24 25 25 26 25 25 25
5 3 4 6 5 6 7 6 6 5 6 5 4 5 6 6 8 7 6 8 9 10 11 11 12 12 12 11 11 11 10 10 10 10 10 8 10 12 13 13 14 14 15 15 16 17 16 16 16 15 16 16 16 15 14 14 13 13 12 14 16 14 14 10 8 8 8 7 7 7 8 17 20 22 22 23 23 23 24 25 25 23 23 23 22
3 4 2 1 5 5 5 7 6 5 6 5 6 5 6 7 6 7 5 7 7 10 11 12 12 12 12 12 12 10 10 9 11 8 10 11 11 9 11 12 14 14 15 16 16 16 16 16 15 16 16 16 15 15 14 14 13 10 17 17 15 14 9 7 8 8 7 7 7 6 11 17 20 22 23 23 23 23 23 24 22 22 22 22 23
3 4 2 1 4 3 4 5 6 6 6 5 6 6 6 8 4 7 8 6 8 10 12 13 12 12 11 12 11 8 6 5 6 5 8 7 10 11 11 12 14 14 15 15 16 15 16 15 16 17 17 16 14 14 14 13 11 11 15 15 14 10 8 8 7 6 6 6 6 7 14 17 20 22 23 24 24 24 24 24 24 23 23 23 22
4 4 3 2 5 3 3 4 4 4 5 5 4 4 5 6 4 5 6 4 7 10 10 8 9 8 12 9 7 7 6 5 5 6 6 6 7 10 11 12 14 14 14 15 15 16 15 16 16 16 16 13 11 7 8 10 13 14 13 14 10 7 8 8 7 7 6 5 5 9 15 18 20 22 23 23 24 25 25 25 24 24 24 23 23
6 5 4 4 3 3 3 4 6 4 4 4 4 5 6 4 4 6 5 6 6 6 7 8 7 8 7 6 7 6 7 6 5 5 6 8 8 10 11 11 12 12 14 15 16 16 16 15 14 12 10 8 6 4 6 6 7 12 11 9 7 7 7 8 7 6 7 6 3 12 15 19 21 22 22 23 23 22 22 22 22 22 22 23 23
6 6 5 5 5 4 5 4 5 6 5 4 5 6 6 5 5 6 6 5 6 6 7 7 7 8 7 5 7 6 8 6 10 13 9 6 7 10 11 11 12 12 12 9 12 13 14 13 10 6 5 5 6 7 7 6 7 7 7 7 7 7 7 7 7 7 7 7 6 12 15 18 20 20 20 19 19 19 21 21 21 22 21 22 23
5 7 6 7 8 6 5 5 4 6 5 5 6 5 6 7 5 6 6 6 6 6 7 7 7 8 7 4 4 7 7 7 7 6 6 6 6 6 5 5 5 6 7 5 6 6 6 5 2 5 6 6 6 6 6 7 6 7 7 7 7 7 7 7 7 7 7 8 11 12 14 15 18 18 19 19 18 19 19 19 20 21 22 22 22
6 7 7 7 9 8 6 5 5 5 6 6 6 7 6 5 6 6 7 6 6 6 5 6 7 8 7 5 6 8 8 7 7 7 6 5 6 5 5 5 4 5 4 6 5 4 4 4 4 6 7 6 7 7 6 6 6 7 7 7 7 7 6 7 7 7 7 8 11 18 12 16 17 18 18 18 18 18 19 20 20 19 16 18 20
8 7 8 7 9 9 8 7 7 7 8 6 6 6 6 5 5 6 7 7 6 6 6 6 6 7 6 6 7 7 8 8 7 8 8 6 5 5 5 5 4 5 6 6 5 4 3 6 6 6 6 7 7 7 7 7 6 7 7 7 7 7 7 7 7 7 7 7 11 19 16 13 17 17 17 17 20 21 19 20 16 15 19 20 18
6 8 9 8 10 11 11 10 8 7 7 7 6 7 5 5 6 6 6 7 7 8 6 6 6 6 5 6 6 7 8 8 7 8 9 8 7 6 6 6 5 6 6 6 5 4 6 6 6 6 7 6 6 6 7 6 6 6 7 7 7 7 7 6 6 7 6 7 8 15 16 15 12 15 16 16 16 17 18 16 16 19 18 17 18
7 8 8 9 9 10 11 11 8 8 7 7 7 7 6 6 4 6 6 5 7 7 7 7 6 6 6 6 6 7 7 8 7 7 8 8 8 7 8 6 6 6 6 6 5 6 6 6 6 6 6 6 6 6 7 6 6 6 7 7 6 7 6 7 6 7 7 7 8 12 19 18 15 15 16 16 16 16 15 15 17 17 16 16 17
8 7 5 5 7 10 11 11 10 10 8 7 6 7 7 6 6 6 6 6 5 6 5 6 7 6 7 6 7 7 7 8 7 7 7 8 8 8 9 7 7 7 6 6 6 6 6 5 6 7 7 7 6 6 7 7 6 6 6 7 7 6 6 6 6 6 6 7 7 9 18 20 21 16 15 14 15 14 14 15 15 15 15 15 17
8 8 7 6 7 8 8 8 8 7 6 8 7 6 7 8 7 6 6 6 6 7 6 7 6 7 6 6 5 7 7 6 7 8 6 7 6 7 8 7 7 7 7 6 7 7 6 5 5 6 7 7 7 6 6 7 6 6 5 7 7 6 6 6 6 6 7 7 7 7 10 18 20 21 15 14 13 13 13 14 14 14 15 15 16
8 10 8 6 7 9 9 9 10 9 7 7 8 8 7 8 7 6 6 6 6 6 7 6 6 6 6 7 6 6 7 6 7 8 8 7 6 7 7 7 6 7 7 6 8 6 6 6 5 5 6 7 7 6 6 7 6 6 5 6 6 7 6 6 6 6 6 6 7 7 7 8 16 19 21 15 14 13 13 12 12 13 13 14 15
6 8 8 8 8 9 10 10 10 8 8 8 7 6 5 7 8 7 7 7 7 5 6 7 6 6 5 6 7 6 6 7 8 8 8 8 6 7 7 6 6 6 6 7 8 6 6 6 6 6 6 6 8 7 6 6 7 6 6 5 6 7 6 6 6 6 6 5 6 6 6 7 7 13 17 20 14 13 12 12 12 12 12 12 12
7 6 7 9 8 6 7 7 9 9 8 6 5 5 5 4 6 8 7 7 6 5 5 6 7 6 6 6 6 6 6 6 8 8 7 8 7 7 7 6 6 6 7 7 7 6 6 8 7 6 5 6 7 7 7 7 6 6 6 5 6 6 6 6 6 6 6 5 5 5 6 6 7 7 8 14 19 11 12 12 12 12 12 12 12
6 6 10 9 8 7 7 7 8 6 7 7 6 5 4 5 4 6 7 7 6 6 5 6 7 6 6 6 8 6 7 6 8 9 8 8 8 7 7 7 7 7 7 6 7 6 7 8 7 7 5 5 7 7 7 7 6 7 6 6 6 6 6 6 6 6 6 5 6 6 6 5 6 6 7 7 10 17 15 13 11 11 11 11 12
11 10 9 8 9 7 7 6 7 7 7 8 6 6 6 6 6 5 6 7 7 6 6 5 6 7 7 7 8 7 6 6 7 9 8 8 8 8 7 7 8 7 8 7 7 8 7 7 7 8 8 6 8 7 7 7 6 7 6 6 6 6 7 7 6 6 5 6 6 5 5 6 6 6 6 7 7 9 18 17 15 11 11 11 11
10 10 10 9 9 9 9 8 8 8 7 7 6 5 5 5 6 6 4 7 7 7 6 6 5 6 5 8 9 8 6 5 5 7 9 9 8 8 7 9 8 8 8 7 7 8 9 7 7 5 6 9 8 8 7 7 7 7 7 6 6 6 6 6 5 5 5 5 5 4 4 5 5 6 6 6 6 6 9 14 14 14 12 12 12
9 10 10 11 11 9 9 9 7 8 7 7 7 6 5 4 4 4 3 7 6 6 7 6 6 5 5 6 7 8 8 6 6 7 6 7 8 8 8 9 9 8 8 7 7 7 7 9 9 6 6 8 8 9 8 7 6 6 7 7 6 6 6 5 6 5 6 5 5 5 5 5 5 4 5 4 3 3 4 9 13 14 13 13 13
9 10 9 9 8 8 8 9 8 8 7 7 6 5 4 4 3 4 4 6 6 6 6 6 5 5 5 6 7 7 8 8 7 8 8 6 6 7 8 9 9 9 8 8 7 8 7 7 9 9 5 5 8 8 9 9 8 7 7 6 6 5 6 6 6 6 6 4 5 5 5 5 4 4 5 4 4 4 4 4 5 6 8 14 12
8 8 8 8 9 8 7 7 8 8 6 6 7 6 6 7 6 4 2 3 5 7 6 6 5 5 4 6 6 7 8 8 8 8 8 8 7 7 8 9 9 9 10 10 9 9 11 10 8 11 10 7 4 7 9 10 9 8 7 6 5 5 5 5 5 4 4 4 4 5 6 5 5 4 4 4 5 4 5 4 4 3 4 8 13
7 8 9 9 11 11 10 11 9 8 8 8 7 8 8 6 5 7 6 4 5 4 5 5 6 5 5 5 7 6 7 8 8 8 7 8 8 8 8 9 9 10 10 11 12 12 10 9 10 9 13 11 7 7 7 10 12 7 6 5 5 4 4 4 4 4 3 4 5 5 4 5 4 4 4 4 4 4 4 5 5 5 5 4 7
9 9 11 12 11 10 11 10 9 9 9 9 8 8 7 8 6 6 4 5 5 6 5 5 5 5 5 5 6 6 7 7 7 8 9 10 9 7 9 10 10 10 10 10 11 10 11 10 10 8 4 11 10 10 9 10 4 8 8 4 3 3 3 4 4 3 4 4 4 5 4 4 4 4 4 5 4 4 4 4 4 5 4 4 4
8 9 8 7 8 10 9 9 9 10 9 8 8 9 5 5 5 3 6 3 3 3 3 3 3 5 5 4 5 6 6 6 6 7 8 8 9 10 9 9 11 11 9 9 10 11 12 14 14 13 10 3 5 8 11 5 8 7 7 7 2 2 0 2 2 3 3 4 4 5 4 3 3 3 4 5 4 4 3 3 3 4 4 4 3
6 6 7 9 9 9 8 9 9 9 8 7 8 6 6 4 4 4 6 5 4 4 3 2 4 5 6 5 3 4 6 6 7 7 6 8 9 10 9 8 9 10 12 12 11 11 11 12 12 11 13 11 8 9 9 5 11 13 5 4 5 5 1 6 3 1 3 3 4 3 3 3 1 1 5 4 4 4 3 3 3 3 3 3 3
8 9 9 9 8 9 8 8 7 8 7 7 8 8 7 6 4 5 5 6 4 5 4 4 6 6 5 6 6 3 4 5 6 6 8 9 9 9 10 10 9 10 9 11 12 13 13 11 10 11 14 15 12 8 10 5 11 9 11 6 3 2 6 4 6 0 2 2 2 3 3 3 2 1 4 3 3 3 2 3 2 2 2 2 2
9 9 8 8 6 7 7 7 6 6 7 7 8 8 8 9 8 8 8 6 6 8 11 11 8 8 8 4 4 5 4 4 6 6 7 8 9 10 10 10 10 9 9 11 11 11 12 13 13 13 11 11 15 11 10 5 9 6 4 5 8 8 7 5 7 3 1 1 4 3 3 1 2 3 4 3 3 3 2 2 3 2 1 1 1
7 5 5 6 6 6 7 8 7 7 7 7 8 8 8 8 9 9 8 9 9 7 5 5 7 5 5 7 6 4 4 5 5 6 6 7 8 9 10 10 10 10 9 9 11 13 13 14 12 12 13 12 10 13 13 9 5 5 3 3 3 1 9 11 5 5 2 1 3 3 2 2 1 2 4 4 3 3 3 3 3 3 1 0 0
5 6 6 6 7 6 7 7 6 7 7 8 9 8 9 8 8 7 7 7 7 6 7 5 5 6 6 6 6 5 4 4 4 4 5 6 6 7 9 9 9 9 10 10 12 11 11 11 13 13 10 9 12 12 13 11 14 10 7 5 4 5 8 3 8 9 6 7 4 1 2 4 2 2 3 4 5 5 4 3 3 3 3 1 1
7 7 6 6 6 5 6 6 7 8 8 10 10 9 9 9 9 8 8 6 6 5 6 6 6 7 8 6 6 6 5 4 4 3 4 5 6 7 7 7 8 9 9 9 9 11 14 14 13 11 10 9 10 8 10 11 10 10 8 3 4 5 5 1 7 4 4 4 1 5 3 1 2 3 4 4 5 4 5 5 3 3 3 3 2
6 6 5 5 6 5 7 8 7 7 7 8 9 8 8 7 8 8 9 7 6 5 7 7 7 7 8 8 6 6 5 4 4 3 3 4 5 6 7 8 8 8 9 9 8 9 10 12 14 14 12 11 9 8 10 9 9 7 11 9 7 4 4 1 4 3 3 4 7 8 7 9 8 6 5 5 5 5 5 5 4 3 3 4 3
5 6 6 6 6 6 7 8 7 6 7 8 8 9 8 7 8 8 9 8 8 8 7 7 6 6 7 7 7 6 5 5 5 5 4 4 5 5 6 7 7 7 8 8 8 8 8 10 10 9 11 13 10 10 8 6 7 6 8 8 9 10 8 7 8 7 4 3 4 3 4 7 7 4 6 6 5 5 5 5 5 5 4 4 4
Wind_Direction
138 130 112 125 134 131 126 133 131 111 113 112 113 109 119 99 93 92 97 94 86 80 75 73 71 69 72 70 66 67 67 70 74 77 75 76 80 81 84 83 78 84 76 75 75 74 73 71 71 70 67 64 64 65 66 70 72 75 76 77 77 76 77 80 79 76 71 66 64 65 66 66 65 65 63 62 62 61 53 50 49 54 54 55 55
137 120 119 118 126 119 130 136 129 128 123 119 120 127 117 108 111 110 100 93 88 82 78 77 73 72 73 70 70 70 67 69 72 76 81 82 83 86 82 85 85 74 81 74 75 72 71 69 67 67 68 66 67 69 67 70 74 73 73 73 72 74 78 82 86 83 76 73 69 67 65 65 65 66 66 65 65 64 61 56 52 49 54 56 56
124 130 113 116 117 125 129 130 126 123 119 122 126 121 112 119 126 112 98 94 91 84 80 79 77 76 76 73 71 71 71 71 74 77 79 80 81 86 87 86 86 88 79 76 74 71 70 70 69 70 70 67 65 66 66 68 69 70 69 63 61 64 71 76 75 75 77 74 71 68 66 66 66 66 68 67 67 65 64 65 62 59 60 59 58
136 123 116 113 111 118 126 126 124 113 116 119 123 123 127 116 118 106 99 97 93 87 83 77 79 80 77 78 77 77 76 74 76 79 81 84 84 81 84 88 84 84 82 76 75 72 71 70 70 69 70 69 68 68 68 68 69 68 65 60 55 52 54 75 82 78 75 70 65 61 63 65 66 67 68 68 68 67 66 66 64 64 64 63 61
121 125 126 124 119 115 119 129 131 125 120 119 120 120 115 121 114 108 103 100 96 90 85 82 82 81 80 82 82 80 79 77 76 81 86 85 86 94 93 87 82 84 88 83 77 75 74 73 72 72 71 70 69 70 70 69 69 64 60 56 53 50 48 52 69 74 71 72 65 61 54 53 68 70 70 70 68 67 68 68 68 66 63 63 63
133 131 135 133 118 119 117 127 128 128 127 125 119 118 118 117 113 109 107 104 101 95 89 87 84 82 84 85 83 82 81 79 77 76 82 86 92 87 85 89 89 78 75 83 83 78 75 74 74 74 71 69 69 71 70 69 62 55 49 45 43 50 55 64 84 82 79 77 70 65 60 56 55 66 70 72 71 69 69 69 68 68 67 64 63
136 143 142 128 122 120 126 130 134 140 130 125 122 122 124 120 111 108 109 108 104 96 92 90 87 88 88 86 85 85 84 85 83 79 82 84 84 91 99 96 85 82 85 80 80 80 80 79 76 74 72 71 71 72 72 65 56 49 44 40 39 46 62 61 67 67 66 75 76 69 64 60 62 65 68 70 71 71 70 69 69 68 67 66 66
130 137 137 121 116 125 130 134 138 133 130 129 131 132 124 118 114 112 110 110 105 100 97 93 92 91 90 89 89 88 87 88 88 84 81 87 89 88 83 88 85 88 83 81 82 83 83 80 76 73 72 74 75 77 71 59 54 49 43 39 44 56 70 72 70 64 62 67 72 75 71 70 72 73 72 73 72 70 71 72 71 69 68 68 67
140 135 124 112 121 124 129 136 141 140 133 133 132 129 125 121 118 116 113 111 107 102 100 96 95 95 95 94 93 92 91 89 89 92 93 90 91 89 87 81 82 85 86 86 86 83 80 78 75 73 73 73 75 77 68 61 53 46 44 45 61 77 78 78 77 75 73 71 70 74 76 76 72 75 76 72 71 72 72 71 72 73 74 74 71
145 139 118 115 123 123 125 139 140 143 137 136 134 133 128 121 120 116 113 110 110 108 102 99 98 98 99 99 97 97 96 93 94 95 95 95 94 92 91 90 88 86 89 94 92 87 82 79 77 75 76 75 76 73 66 57 50 45 41 42 59 66 66 69 81 83 83 79 73 69 62 54 55 72 76 79 77 71 65 62 64 62 62 60 62
146 129 108 115 124 122 133 139 143 144 142 139 140 132 129 126 120 117 117 119 116 112 107 102 100 99 100 100 101 100 98 97 96 97 100 99 95 92 82 81 83 79 84 88 91 86 82 79 77 78 79 78 76 69 60 52 44 39 39 46 51 56 55 52 54 52 54 58 56 54 62 63 64 73 81 79 76 77 77 75 73 73 72 70 69
140 107 102 115 121 123 130 129 145 147 150 147 141 140 136 132 127 124 124 121 118 114 109 105 103 102 103 102 101 101 100 99 97 96 97 98 94 88 87 83 88 95 97 88 82 83 83 83 84 84 80 77 72 65 56 48 42 37 36 41 63 67 64 59 55 54 56 57 58 60 55 57 70 80 81 80 80 78 77 75 73 72 71 67 66
132 107 114 125 118 123 125 124 131 146 151 147 142 143 143 139 135 129 126 123 119 116 111 106 103 103 103 103 102 103 103 102 101 100 99 100 96 93 92 88 87 88 84 84 85 86 86 86 86 85 80 73 66 61 56 51 46 40 36 36 71 74 68 65 64 61 60 58 58 64 70 70 77 79 81 83 80 75 71 70 68 65 65 65 61
132 118 131 127 119 117 116 120 126 138 147 150 143 147 150 146 139 136 129 125 123 122 117 113 109 106 105 105 105 104 105 104 103 102 98 98 105 105 95 98 100 96 91 88 86 87 91 92 91 88 80 72 66 61 56 51 48 44 45 50 47 85 78 76 74 71 69 66 68 68 69 67 77 78 78 78 75 72 71 70 68 64 64 65 63
134 133 133 118 124 117 114 116 126 130 134 151 144 149 151 151 144 141 137 130 130 130 123 117 112 108 107 107 108 108 107 105 104 102 100 97 103 101 93 93 100 101 96 93 93 96 98 96 95 95 82 75 70 64 58 53 47 44 47 49 64 76 82 74 68 71 76 75 71 70 78 82 77 80 80 77 76 75 75 74 74 72 70 70 69
129 133 128 130 132 125 118 115 114 120 128 136 152 151 154 150 145 146 143 138 135 134 127 122 116 111 108 108 110 112 111 110 107 105 104 104 105 105 109 103 100 103 100 102 106 105 103 102 102 95 84 80 74 65 58 50 43 40 36 51 61 64 67 72 72 70 69 68 67 65 63 71 74 74 76 75 77 77 77 77 74 73 71 71 68
127 137 129 136 137 146 132 138 128 123 120 121 126 147 147 138 142 147 150 142 139 136 132 125 119 115 111 110 108 108 110 110 111 108 107 107 106 105 105 107 109 111 111 113 112 110 108 107 107 97 86 81 76 67 55 47 41 35 29 50 63 70 70 69 71 72 73 72 70 67 76 78 81 80 80 82 80 79 78 75 76 78 74 71 71
123 141 132 142 142 153 141 143 136 140 128 121 115 131 132 141 148 153 156 144 140 137 135 126 117 111 105 101 102 106 111 111 112 113 112 109 106 107 111 111 111 110 112 113 114 114 113 110 107 94 88 81 75 68 57 48 40 32 29 55 57 59 57 54 56 55 52 42 39 42 47 74 88 92 90 84 80 80 81 82 79 75 71 69 68
132 143 145 144 158 147 147 145 153 161 145 151 142 135 140 120 137 150 149 147 140 136 126 114 112 111 106 96 88 83 81 87 91 97 99 93 102 103 110 112 111 109 113 116 117 116 113 113 105 93 88 83 77 68 59 49 40 31 39 54 57 58 58 59 57 53 49 44 43 59 62 71 77 78 78 83 86 87 85 80 77 77 75 74 73
82 89 83 178 149 156 157 148 160 168 160 161 154 143 146 138 139 132 127 134 135 132 124 117 113 111 108 105 101 93 88 88 90 92 95 93 95 103 108 111 111 111 110 112 114 112 111 112 100 92 86 81 73 64 56 53 45 37 67 60 54 52 52 51 55 55 51 48 48 62 77 82 87 88 86 84 87 86 83 80 80 80 80 78 74
96 109 123 204 101 126 155 160 166 167 164 153 162 146 149 149 128 134 128 133 137 137 120 116 116 118 117 118 112 110 107 100 89 90 84 94 102 106 111 112 110 108 106 109 110 109 113 106 97 93 89 81 70 61 56 50 41 43 66 64 59 57 52 46 42 51 54 52 51 68 81 83 85 87 86 85 82 82 81 81 79 76 74 75 74
148 157 166 174 133 147 164 173 176 168 166 152 147 134 133 156 140 143 143 130 136 134 129 131 132 134 136 134 128 130 127 108 102 92 97 97 95 101 104 108 108 105 106 107 109 111 109 102 99 95 88 81 70 61 54 45 39 39 57 65 63 61 54 52 46 40 29 25 60 75 81 85 84 84 85 83 80 79 77 77 79 80 79 78 78
168 169 173 174 160 154 175 190 162 172 172 160 139 147 149 160 177 153 143 142 146 151 140 142 145 146 160 153 144 158 124 124 119 106 95 87 93 95 99 103 105 105 107 107 109 108 105 101 95 90 83 71 66 61 51 46 39 36 43 60 62 56 53 47 45 41 36 15 39 88 85 83 83 82 81 80 79 79 80 79 78 76 75 71 71
172 176 174 171 165 185 178 203 169 157 164 172 156 157 161 169 190 157 161 154 161 172 155 160 154 162 173 172 163 147 123 116 106 106 102 96 87 86 92 95 97 97 97 99 102 105 105 104 104 86 60 55 54 55 53 47 45 43 47 51 58 53 48 44 39 39 35 23 359 74 84 84 83 82 82 81 83 80 79 78 77 76 75 76 73
183 164 174 178 176 181 181 188 181 162 165 167 165 163 162 174 175 154 157 163 166 176 168 172 164 173 184 187 145 109 122 122 124 121 116 112 106 109 102 103 104 100 94 96 103 110 112 115 113 77 67 60 55 48 50 47 40 42 46 48 54 54 50 42 40 41 31 19 14 34 77 83 85 87 86 86 83 80 78 78 79 76 74 73 71
186 168 189 176 177 181 182 189 190 170 172 172 170 162 166 179 173 163 158 173 169 179 180 191 173 176 189 167 131 129 130 130 140 137 127 127 128 134 127 125 123 118 117 121 137 141 153 142 96 74 66 65 63 57 55 58 55 49 47 47 48 50 50 45 43 43 30 25 19 15 67 86 88 86 85 83 84 84 85 85 78 75 80 80 78
177 183 181 193 172 180 180 187 197 179 183 166 165 138 163 180 185 168 165 178 168 183 188 193 180 180 180 163 149 148 142 146 155 147 139 141 153 158 139 145 144 135 145 152 164 172 128 88 85 86 81 78 73 71 68 63 62 65 59 53 51 49 48 48 44 43 38 29 23 20 27 79 88 89 89 87 85 85 87 83 82 83 77 74 78
169 183 182 193 173 178 175 185 193 184 183 176 157 153 167 183 183 182 184 175 166 182 188 190 180 178 170 176 162 158 153 156 168 152 150 154 168 162 144 153 153 156 169 171 163 114 92 96 97 95 92 82 85 81 79 74 69 71 73 65 59 53 51 48 45 43 34 36 32 19 16 36 77 91 88 88 86 84 79 82 82 81 80 81 80
182 186 182 181 175 174 182 182 183 189 186 183 171 160 162 177 181 173 190 177 176 179 184 187 185 181 185 178 164 170 158 163 170 156 156 164 168 161 149 165 165 172 171 171 137 114 115 122 121 116 108 100 90 84 83 75 74 72 80 76 69 62 56 53 48 40 40 34 35 22 25 19 41 76 85 87 85 82 86 83 84 82 82 81 78
185 178 173 178 168 178 190 181 185 191 184 180 186 162 165 170 181 175 180 170 187 187 184 194 178 184 189 181 172 171 167 169 165 160 160 169 169 152 155 171 173 172 160 158 130 127 138 141 130 126 117 107 96 91 90 82 71 70 76 83 74 70 68 63 57 53 43 43 34 31 24 29 25 38 66 84 93 95 93 91 88 87 83 81 78
168 179 186 188 171 173 178 182 190 196 181 175 181 192 169 175 177 171 164 177 182 180 188 197 185 184 185 177 177 172 172 165 168 163 161 170 164 151 160 170 176 160 157 148 135 144 150 137 135 128 121 114 107 102 98 90 78 70 76 81 80 75 63 58 60 57 54 44 40 35 28 29 31 25 38 77 72 75 81 89 93 87 87 83 80
180 186 185 177 163 176 178 182 190 197 186 181 178 191 183 171 170 168 167 180 188 184 179 187 190 186 178 174 180 187 174 171 163 167 165 171 166 159 158 166 169 152 147 137 134 144 138 130 121 112 114 114 112 103 94 97 87 80 73 81 81 76 70 66 66 63 62 55 49 40 36 31 30 33 26 37 71 77 83 79 78 86 86 87 83
198 181 178 174 177 179 182 185 189 193 187 193 191 192 189 172 165 170 168 163 179 191 178 184 192 189 181 176 184 189 189 166 167 170 164 173 170 164 161 160 160 143 140 138 135 136 129 115 106 110 108 107 107 103 97 91 94 84 76 76 80 78 76 72 65 63 64 67 62 54 40 39 33 31 26 26 33 80 78 76 80 80 79 79 81
183 175 178 185 182 178 175 180 189 193 187 183 172 176 200 197 168 167 168 157 162 184 191 174 183 187 185 185 186 191 188 172 160 173 165 171 174 173 162 154 144 139 138 134 140 142 129 122 121 106 110 114 112 109 105 97 90 84 77 75 75 77 76 69 64 63 60 56 55 59 62 48 47 35 31 25 20 43 82 75 81 81 84 84 81
173 181 191 189 179 177 171 181 183 183 170 181 182 181 192 208 207 170 169 160 167 177 196 174 177 184 183 189 189 195 187 176 163 171 172 171 173 170 159 150 141 143 144 147 141 132 133 132 127 118 121 113 108 108 106 105 103 95 91 89 87 86 76 77 71 65 62 57 54 53 44 53 51 53 34 37 23 22 44 69 74 77 77 80 80
189 189 189 183 185 177 172 179 177 184 175 177 181 183 184 191 205 207 164 168 166 173 182 193 172 182 190 184 185 190 188 181 165 161 174 174 170 173 163 146 147 146 148 151 144 140 140 134 134 140 133 126 115 108 105 107 99 94 87 84 86 82 79 69 68 71 72 69 67 63 56 57 79 75 64 44 39 39 40 38 45 67 75 76 76
186 182 184 185 186 176 172 177 179 183 174 173 176 181 184 185 193 206 186 167 168 173 178 173 176 171 183 184 180 182 187 181 171 162 171 175 170 169 162 153 151 151 153 148 144 144 144 140 138 142 142 135 125 119 109 106 102 96 90 81 76 80 81 91 86 81 75 79 86 76 62 53 57 81 99 89 78 68 53 48 39 37 52 65 62
184 183 184 186 187 175 176 181 176 183 174 174 178 180 182 193 209 211 182 159 167 173 168 162 169 180 175 187 181 176 184 180 176 174 170 179 169 163 153 153 152 151 149 143 142 138 135 139 132 134 146 133 131 130 123 112 100 92 83 82 79 77 81 83 81 75 79 82 73 80 76 62 58 53 65 80 90 81 67 50 39 30 31 58 62
183 182 180 182 179 176 170 181 174 179 177 167 173 172 178 194 210 220 215 159 167 162 159 171 179 171 193 184 179 180 185 184 178 177 166 156 153 154 151 156 155 154 147 139 134 133 134 140 140 132 113 104 134 138 131 122 107 90 79 74 76 72 69 78 87 86 91 94 92 81 75 65 59 54 55 52 47 47 50 74 64 41 36 58 57
177 181 179 175 181 177 171 177 183 174 170 168 161 169 172 186 195 191 155 188 165 159 164 169 172 191 191 178 185 179 184 185 181 173 167 159 158 158 158 158 159 155 153 147 149 152 152 141 138 134 125 113 113 132 132 118 97 88 81 66 66 75 76 83 86 97 99 94 93 90 85 76 68 59 56 51 48 43 45 43 54 56 47 45 46
173 180 182 182 184 184 169 183 183 172 171 172 172 171 175 180 186 195 193 184 189 158 152 159 169 185 189 187 182 185 184 184 181 167 160 154 158 159 158 164 163 165 165 167 163 156 150 138 133 137 140 134 140 149 146 129 118 89 70 71 65 60 72 86 77 72 76 82 88 90 87 78 74 74 66 59 53 46 44 44 42 38 38 40 33
190 185 190 190 184 182 181 178 177 181 182 182 175 177 185 188 176 186 166 176 185 190 186 182 169 166 176 185 182 177 176 180 176 165 161 159 152 160 167 170 167 172 173 164 155 147 139 137 138 127 153 149 156 166 164 135 107 143 136 116 55 51 79 76 87 69 71 65 69 73 77 81 80 93 84 71 55 52 49 46 45 39 35 46 65
182 188 193 184 184 188 186 177 181 185 186 179 168 182 169 162 157 168 167 177 195 182 193 194 156 152 173 170 180 179 176 175 174 166 162 163 159 164 177 177 175 163 148 147 152 155 157 155 160 153 151 170 153 173 177 188 128 123 115 98 155 95 235 70 68 91 86 84 81 72 76 71 55 77 100 83 75 61 55 58 59 53 40 40 60
176 188 190 193 190 192 185 180 182 185 184 179 165 161 155 148 156 149 166 166 173 131 111 124 162 150 176 172 177 182 179 175 173 171 169 165 163 171 172 176 179 172 163 156 162 164 163 164 163 162 150 146 171 186 203 184 142 134 144 171 176 126 171 238 169 173 99 87 102 112 98 102 74 43 79 80 82 82 79 77 68 62 58 50 53
187 188 191 192 194 192 189 182 178 182 179 163 153 148 143 155 137 63 85 81 81 130 140 184 188 178 161 179 185 166 169 170 175 176 172 173 172 172 173 177 179 176 167 163 167 170 170 173 170 164 169 160 167 174 201 192 177 172 135 119 102 213 218 180 125 52 113 83 91 107 118 137 148 168 103 113 117 118 102 89 82 61 66 62 54
195 198 189 190 182 184 181 177 170 171 169 162 152 149 161 161 158 155 160 167 171 179 194 194 186 185 184 158 145 171 166 169 179 181 178 175 176 175 175 174 178 176 174 173 170 163 168 170 176 173 179 181 163 170 183 219 191 214 176 136 157 172 168 165 129 199 80 154 154 138 144 187 164 141 135 134 140 135 135 128 108 100 84 77 67
202 178 178 187 186 178 179 174 168 164 162 161 161 153 160 172 181 186 183 184 185 204 201 201 185 173 147 165 170 172 175 170 182 182 181 179 176 175 176 177 177 179 177 173 174 176 175 180 180 185 185 176 168 167 178 180 175 226 178 111 100 114 139 138 180 104 141 274 161 148 195 182 174 173 152 168 177 147 152 142 153 139 131 109 76
177 173 183 183 184 179 171 171 165 160 163 159 172 169 166 174 178 189 190 192 195 192 181 184 165 158 163 164 159 173 171 171 173 179 181 177 173 172 175 176 177 180 178 183 182 181 179 183 186 190 185 182 179 173 175 172 172 196 172 126 90 115 152 94 144 156 149 161 219 225 178 181 193 214 186 176 180 173 180 173 158 176 157 147 124
173 177 180 179 177 172 166 168 169 163 171 169 174 177 174 177 177 183 196 205 196 191 172 168 169 168 171 162 165 163 166 158 159 167 177 174 171 172 169 171 178 177 183 188 187 183 182 179 183 186 188 187 191 186 173 180 182 181 151 148 124 135 174 123 148 119 134 116 162 184 193 170 198 236 221 189 189 184 175 170 183 185 166 166 174
167 164 165 165 174 171 171 175 179 170 170 169 171 174 174 171 175 184 194 200 194 193 175 179 179 171 175 170 166 162 162 150 147 159 166 171 170 173 173 173 179 178 182 189 184 188 190 188 186 185 181 181 187 186 189 188 190 179 178 150 147 132 143 177 156 153 88 122 160 192 189 174 196 225 200 198 188 184 165 162 170 197 185 188 183
154 156 165 170 174 176 176 180 183 165 163 172 173 177 178 182 186 187 195 198 196 194 179 181 169 171 178 171 169 166 160 164 158 163 175 175 175 175 176 176 174 170 181 177 175 180 194 193 188 190 185 179 181 189 194 193 187 167 165 157 166 168 170 172 174 175 143 138 90 162 169 196 196 176 210 187 178 172 165 164 177 198 208 186 191